Regional Weather Roundup
Issued by NWS

Home | Current Version | Previous Version | Text Only | Print | Product List | Glossary On
Versions: 1 2 3 4 5 6 7 8 9 10 11 12 13 14 15 16 17 18 19 20 21 22 23 24 25 26 27 28 29 30 31 32 33 34 35 36 37 38 39 40 41 42 43 44 45 46 47 48 49 50
000
ASUS44 KFWD 200803
RWRTX
NORTH TEXAS HOURLY WEATHER ROUNDUP
NATIONAL WEATHER SERVICE FORT WORTH TX
200 AM CST SAT DEC 20 2014

NOTE: "FAIR" INDICATES FEW OR NO CLOUDS BELOW 12,000 FEET WITH NO
SIGNIFICANT WEATHER AND/OR OBSTRUCTIONS TO VISIBILITY.

TXZ118-119-200900-
DALLAS/FORT WORTH METROPLEX

CITY           SKY/WX    TMP DP  RH WIND       PRES   REMARKS
DFW AIRPORT    CLOUDY    46  42  86 N9        30.19F
DALLAS LOVE    CLOUDY    47  43  86 N7        30.20S FOG
FTW MEACHAM    CLOUDY    46  42  86 N8        30.20S FOG
DAL-EXECUTIVE  CLOUDY    48  44  86 NW8       30.19S
FTW-ALLIANCE   CLOUDY    45  41  86 N10       30.20S WCI  40
ARLINGTON      CLOUDY    48  42  80 NW7       30.20S
GRAND PRAIRIE  CLOUDY    47  45  92 N6        30.21S
ADDISON        CLOUDY    46  46 100 N8        30.22S FOG
MESQUITE       CLOUDY    47  45  94 N3        30.21R
LANCASTER      CLOUDY    47  44  90 CALM      30.21R FOG
$$

TXZ091>094-102>105-117-120-121-131>134-200900-
NORTH CENTRAL TEXAS

CITY           SKY/WX    TMP DP  RH WIND       PRES   REMARKS
SHRMAN/DENISON CLOUDY    44  43  97 CALM      30.22S
BRIDGEPORT     CLOUDY    45  40  85 CALM      30.24S
DECATUR        CLOUDY    43  39  86 CALM      30.21S
DENTON         CLOUDY    45  40  82 N5        30.21F
MCKINNEY       CLOUDY    45  43  93 MISG      30.21S
ROCKWALL       FOG       46  46 100 N6        30.19S VSB 1/2
TERRELL        CLOUDY    48  44  86 NE6       30.20S
WAXAHACHIE     CLOUDY    46  46 100 N3        30.21R FOG
CLEBURNE       CLOUDY    45  45 100 N5        30.21S
GRANBURY       CLOUDY    47  42  83 NW5       30.22S
$$

TXZ083>090-098>101-113>116-127>130-139>142-154-155-200900-
WESTERN NORTH TEXAS

CITY           SKY/WX    TMP DP  RH WIND       PRES   REMARKS
WICHITA FALLS  CLOUDY    43  40  89 S3        30.21S
WF-KICKAPOO    CLOUDY    44  39  82 CALM      30.23R
VERNON         CLOUDY    45  37  75 S3        30.22R
ABILENE        CLOUDY    45  39  79 CALM      30.19F
BRECKENRIDGE   CLOUDY    46  41  84 CALM      30.20S
MINERAL WELLS  CLOUDY    45  40  82 NE3       30.20S
STEPHENVILLE   CLOUDY    44  42  91 CALM      30.22S
COMANCHE       CLOUDY    45  45 100 NE3       30.19S
COLEMAN        CLOUDY    46  44  93 N6        30.18F
$$

TXZ143>147-156>162-174-175-200900-
CENTRAL TEXAS

CITY           SKY/WX    TMP DP  RH WIND       PRES   REMARKS
WACO           CLOUDY    48  45  89 N8        30.20R
WACO-MCGREGOR  CLOUDY    48  43  81 N8        30.21R
CORSICANA      CLOUDY    48  44  86 NE5       30.20S
MEXIA          CLOUDY    46  45  95 N3        30.18S
HEARNE         CLOUDY    47  47  97 N5        30.20R FOG
TEMPLE         CLOUDY    48  41  76 N8        30.18S
KILLEEN        CLOUDY    46  45  97 N7        30.18F
KILLEEN-SKYLRK CLOUDY    46  39  76 N5        30.15F
FORT HOOD      CLOUDY    47  45  94 N8        30.18S
GATESVILLE     CLOUDY    46  45  93 NW5       30.22S
HAMILTON       CLOUDY    46  46 100 NE6       30.20S FOG
$$

TXZ095>097-106>112-122>126-135>138-148>153-164>167-200900-
EAST TEXAS

CITY           SKY/WX    TMP DP  RH WIND       PRES   REMARKS
PARIS          CLOUDY    45  41  87 E6        30.22S
SULPHUR SPRNGS CLOUDY    46  45  96 NE3       30.22S FOG
MOUNT PLEASANT CLOUDY    45  44  95 E5        30.22S
MINEOLA        CLOUDY    46  46 100 N3        30.21R FOG
TYLER          CLOUDY    47  44  90 NE5       30.18S
LONGVIEW       CLOUDY    47  44  90 NE3       30.18S
MARSHALL       CLOUDY    48  46  90 CALM      30.21S
PALESTINE      CLOUDY    47  47  97 CALM      30.20R FOG
JACKSONVILLE   FOG       46  46  98 NE5       30.19S VSB 1/2
HENDERSON      CLOUDY    46  46  99 NE5       30.19S
NACOGDOCHES    CLOUDY    46  45  93 NE3       30.18S
LUFKIN         CLOUDY    50  46  86 N5        30.16S
$$

SUPPLEMENTAL OBSERVATIONS (CENTRAL)

CITY           SKY/WX    TMP DP  RH WIND       PRES   REMARKS
$$

SUPPLEMENTAL OBSERVATIONS (WEST)

CITY           SKY/WX    TMP DP  RH WIND       PRES   REMARKS
$$

SUPPLEMENTAL OBSERVATIONS (EAST)

CITY           SKY/WX    TMP DP  RH WIND       PRES   REMARKS
$$

SUPPLEMENTAL OBSERVATIONS ARE A COLLECTION OF AUTOMATED INSTRUMENTS
THAT ARE MAINTAINED BY A VARIETY OF FEDERAL AND STATE AGENCIES.
CERTAIN ELEMENTS...SUCH AS HUMIDITY VALUES AND SUSTAINED WIND
SPEEDS...MAY BE APPROXIMATED.



USA.gov is the U.S. government's official web portal to all federal, state and local government web resources and services.